| time (UTC) | temp C | wind direction | speed KPH | gust KPH | rain 1hr cm | rain 24hr cm | rain mn cm | humidity % | barometer mb |
| 20260505014050 | 13 | 218 | 4.8 | 16.1 | 0.00 | 0.00 | 0.00 | 64 | 1010.4 |
| 20260505013548 | 13 | 241 | 6.4 | 16.1 | 0.00 | 0.00 | 0.00 | 65 | 1010.4 |
| 20260505013056 | 13 | 249 | 8.0 | 16.1 | 0.00 | 0.00 | 0.00 | 64 | 1010.4 |
| 20260505012547 | 13 | 254 | 6.4 | 17.7 | 0.00 | 0.00 | 0.00 | 64 | 1010.3 |
| 20260505012047 | 13 | 234 | 9.7 | 17.7 | 0.00 | 0.00 | 0.00 | 64 | 1010.3 |
| 20260505011559 | 13 | 198 | 6.4 | 17.7 | 0.00 | 0.00 | 0.00 | 63 | 1010.2 |
| 20260505011051 | 13 | 265 | 8.0 | 16.1 | 0.00 | 0.00 | 0.00 | 62 | 1010.0 |
| 20260505010547 | 13 | 241 | 4.8 | 17.7 | 0.00 | 0.00 | 0.00 | 62 | 1010.0 |
| 20260505010058 | 13 | 216 | 6.4 | 22.5 | 0.00 | 0.00 | 0.00 | 61 | 1009.8 |
| 20260505005551 | 13 | 174 | 11.3 | 22.5 | 0.00 | 0.00 | 0.00 | 57 | 1009.8 |
| 20260505005048 | 13 | 240 | 6.4 | 16.1 | 0.00 | 0.00 | 0.00 | 60 | 1009.7 |
| 20260505004553 | 13 | 234 | 4.8 | 17.7 | 0.00 | 0.00 | 0.00 | 60 | 1009.6 |
| 20260505004048 | 13 | 213 | 8.0 | 17.7 | 0.00 | 0.00 | 0.00 | 59 | 1009.5 |
| 20260505003550 | 13 | 207 | 8.0 | 17.7 | 0.00 | 0.00 | 0.00 | 59 | 1009.4 |
| 20260505003057 | 14 | 213 | 6.4 | 16.1 | 0.00 | 0.00 | 0.00 | 58 | 1009.3 |
| 20260505002548 | 14 | 209 | 9.7 | 19.3 | 0.00 | 0.00 | 0.00 | 60 | 1009.2 |
| 20260505002048 | 14 | 240 | 8.0 | 19.3 | 0.00 | 0.00 | 0.00 | 54 | 1009.1 |
| 20260505001557 | 14 | 257 | 6.4 | 17.7 | 0.00 | 0.00 | 0.00 | 56 | 1009.0 |
| 20260505001048 | 15 | 247 | 8.0 | 20.9 | 0.00 | 0.00 | 0.00 | 56 | 1008.9 |
| 20260505000547 | 15 | 236 | 8.0 | 20.9 | 0.00 | 0.00 | 0.00 | 56 | 1008.8 |
| 20260505000057 | 15 | 264 | 11.3 | 20.9 | 0.00 | 0.00 | 0.00 | 55 | 1008.7 |
| 20260504235549 | 15 | 244 | 8.0 | 17.7 | 0.00 | 0.00 | 0.00 | 54 | 1008.6 |
| 20260504235049 | 15 | 209 | 8.0 | 17.7 | 0.00 | 0.00 | 0.00 | 51 | 1008.7 |
| 20260504234553 | 15 | 203 | 9.7 | 17.7 | 0.00 | 0.00 | 0.00 | 52 | 1008.5 |
| 20260504234048 | 15 | 271 | 4.8 | 19.3 | 0.00 | 0.00 | 0.00 | 52 | 1008.5 |
| 20260504233548 | 16 | 211 | 6.4 | 24.1 | 0.00 | 0.00 | 0.00 | 52 | 1008.4 |
| 20260504233049 | 16 | 255 | 11.3 | 25.7 | 0.00 | 0.00 | 0.00 | 51 | 1008.3 |
| 20260504232548 | 16 | 228 | 11.3 | 25.7 | 0.00 | 0.00 | 0.00 | 50 | 1008.3 |
| 20260504232047 | 16 | 248 | 12.9 | 24.1 | 0.00 | 0.00 | 0.00 | 50 | 1008.2 |
| 20260504231551 | 16 | 223 | 9.7 | 25.7 | 0.00 | 0.00 | 0.00 | 46 | 1008.2 |
| 20260504231047 | 17 | 248 | 12.9 | 30.6 | 0.00 | 0.00 | 0.00 | 46 | 1008.2 |
| 20260504230552 | 17 | 221 | 11.3 | 30.6 | 0.00 | 0.00 | 0.00 | 49 | 1008.2 |
| 20260504230057 | 17 | 219 | 12.9 | 29.0 | 0.00 | 0.00 | 0.00 | 47 | 1008.1 |
| 20260504225549 | 17 | 225 | 12.9 | 29.0 | 0.00 | 0.00 | 0.00 | 49 | 1008.0 |
| 20260504225048 | 17 | 261 | 8.0 | 27.4 | 0.00 | 0.00 | 0.00 | 48 | 1007.9 |
| 20260504224556 | 17 | 250 | 12.9 | 27.4 | 0.00 | 0.00 | 0.00 | 49 | 1007.8 |
| 20260504224051 | 17 | 254 | 12.9 | 27.4 | 0.00 | 0.00 | 0.00 | 47 | 1007.8 |
| 20260504223547 | 17 | 215 | 11.3 | 25.7 | 0.00 | 0.00 | 0.00 | 46 | 1007.9 |
| 20260504223125 | 17 | 249 | 6.4 | 19.3 | 0.00 | 0.00 | 0.00 | 47 | 1007.9 |
| 20260504222548 | 17 | 257 | 11.3 | 41.8 | 0.00 | 0.00 | 0.00 | 48 | 1007.7 |
| 20260504222048 | 17 | 191 | 9.7 | 41.8 | 0.00 | 0.00 | 0.00 | 47 | 1007.7 |
| 20260504221600 | 18 | 201 | 17.7 | 33.8 | 0.00 | 0.00 | 0.00 | 46 | 1007.8 |
| 20260504221047 | 18 | 206 | 11.3 | 24.1 | 0.00 | 0.00 | 0.00 | 45 | 1007.6 |
| 20260504220548 | 18 | 261 | 12.9 | 24.1 | 0.00 | 0.00 | 0.00 | 42 | 1007.6 |
| 20260504220058 | 18 | 225 | 11.3 | 25.7 | 0.00 | 0.00 | 0.00 | 44 | 1007.6 |
| 20260504215552 | 18 | 282 | 12.9 | 27.4 | 0.00 | 0.00 | 0.00 | 43 | 1007.6 |
| 20260504215048 | 18 | 214 | 12.9 | 27.4 | 0.00 | 0.00 | 0.00 | 43 | 1007.6 |
| 20260504214557 | 19 | 232 | 8.0 | 27.4 | 0.00 | 0.00 | 0.00 | 43 | 1007.5 |
| 20260504214052 | 18 | 254 | 16.1 | 27.4 | 0.00 | 0.00 | 0.00 | 43 | 1007.5 |
| 20260504213548 | 19 | 181 | 12.9 | 37.0 | 0.00 | 0.00 | 0.00 | 41 | 1007.5 |
| 20260504213106 | 19 | 260 | 16.1 | 37.0 | 0.00 | 0.00 | 0.00 | 42 | 1007.5 |
| 20260504212552 | 19 | 200 | 11.3 | 25.7 | 0.00 | 0.00 | 0.00 | 42 | 1007.3 |
| 20260504212046 | 19 | 221 | 12.9 | 30.6 | 0.00 | 0.00 | 0.00 | 42 | 1007.4 |
| 20260504211639 | 19 | 195 | 11.3 | 30.6 | 0.00 | 0.00 | 0.00 | 42 | 1007.3 |
| 20260504211048 | 19 | 257 | 17.7 | 30.6 | 0.00 | 0.00 | 0.00 | 42 | 1007.5 |
| 20260504210548 | 19 | 232 | 14.5 | 33.8 | 0.00 | 0.00 | 0.00 | 41 | 1007.3 |
| 20260504210055 | 19 | 274 | 14.5 | 33.8 | 0.00 | 0.00 | 0.00 | 42 | 1007.3 |
| 20260504205547 | 19 | 244 | 16.1 | 35.4 | 0.00 | 0.00 | 0.00 | 37 | 1007.3 |
| 20260504205048 | 19 | 254 | 19.3 | 35.4 | 0.00 | 0.00 | 0.00 | 40 | 1007.2 |
| 20260504204551 | 19 | 219 | 16.1 | 24.1 | 0.00 | 0.00 | 0.00 | 40 | 1007.2 |
| 20260504204048 | 20 | 236 | 12.9 | 27.4 | 0.00 | 0.00 | 0.00 | 39 | 1007.3 |
| 20260504203545 | 20 | 215 | 8.0 | 32.2 | 0.00 | 0.00 | 0.00 | 38 | 1007.2 |
| 20260504203052 | 20 | 186 | 12.9 | 32.2 | 0.00 | 0.00 | 0.00 | 37 | 1007.2 |
| 20260504202547 | 20 | 251 | 14.5 | 32.2 | 0.00 | 0.00 | 0.00 | 39 | 1007.1 |
| 20260504202048 | 20 | 209 | 9.7 | 22.5 | 0.00 | 0.00 | 0.00 | 35 | 1007.2 |
| 20260504201555 | 20 | 241 | 12.9 | 29.0 | 0.00 | 0.00 | 0.00 | 37 | 1007.1 |
| 20260504201045 | 20 | 257 | 16.1 | 29.0 | 0.00 | 0.00 | 0.00 | 38 | 1007.1 |
| 20260504200548 | 20 | 275 | 9.7 | 29.0 | 0.00 | 0.00 | 0.00 | 40 | 1007.2 |
| 20260504200054 | 20 | 243 | 17.7 | 29.0 | 0.00 | 0.00 | 0.00 | 36 | 1007.3 |
| 20260504195551 | 20 | 183 | 16.1 | 29.0 | 0.00 | 0.00 | 0.00 | 38 | 1007.2 |
| 20260504195049 | 19 | 260 | 11.3 | 30.6 | 0.00 | 0.00 | 0.00 | 35 | 1007.2 |
| 20260504194555 | 20 | 251 | 16.1 | 30.6 | 0.00 | 0.00 | 0.00 | 34 | 1007.2 |
| 20260504194048 | 20 | 224 | 14.5 | 30.6 | 0.00 | 0.00 | 0.00 | 37 | 1007.2 |
| 20260504193548 | 20 | 271 | 16.1 | 30.6 | 0.00 | 0.00 | 0.00 | 37 | 1007.3 |
| 20260504193107 | 20 | 246 | 17.7 | 35.4 | 0.00 | 0.00 | 0.00 | 36 | 1007.4 |
| 20260504192548 | 19 | 187 | 17.7 | 35.4 | 0.00 | 0.00 | 0.00 | 37 | 1007.1 |
| 20260504192048 | 19 | 234 | 16.1 | 35.4 | 0.00 | 0.00 | 0.00 | 37 | 1007.3 |
| 20260504191607 | 19 | 279 | 20.9 | 32.2 | 0.00 | 0.00 | 0.00 | 37 | 1007.2 |
| 20260504191048 | 19 | 256 | 12.9 | 29.0 | 0.00 | 0.00 | 0.00 | 38 | 1007.3 |
| 20260504190549 | 19 | 259 | 16.1 | 29.0 | 0.00 | 0.00 | 0.00 | 37 | 1007.5 |
| 20260504190105 | 20 | 271 | 12.9 | 29.0 | 0.00 | 0.00 | 0.00 | 37 | 1007.4 |
| 20260504185547 | 19 | 248 | 14.5 | 29.0 | 0.00 | 0.00 | 0.00 | 36 | 1007.5 |
| 20260504185050 | 19 | 251 | 14.5 | 27.4 | 0.00 | 0.00 | 0.00 | 36 | 1007.4 |
| 20260504184555 | 19 | 213 | 14.5 | 27.4 | 0.00 | 0.00 | 0.00 | 39 | 1007.5 |
| 20260504184049 | 18 | 268 | 14.5 | 33.8 | 0.00 | 0.00 | 0.00 | 36 | 1007.6 |
| 20260504183551 | 18 | 257 | 16.1 | 33.8 | 0.00 | 0.00 | 0.00 | 37 | 1007.7 |
| 20260504183056 | 18 | 229 | 16.1 | 29.0 | 0.00 | 0.00 | 0.00 | 38 | 1007.8 |
| 20260504182547 | 19 | 257 | 16.1 | 29.0 | 0.00 | 0.00 | 0.00 | 35 | 1007.7 |
| 20260504182050 | 19 | 263 | 14.5 | 29.0 | 0.00 | 0.00 | 0.00 | 36 | 1007.7 |
| 20260504181601 | 18 | 197 | 17.7 | 27.4 | 0.00 | 0.00 | 0.00 | 37 | 1007.9 |
| 20260504181048 | 19 | 250 | 12.9 | 27.4 | 0.00 | 0.00 | 0.00 | 35 | 1008.0 |
| 20260504180552 | 19 | 223 | 9.7 | 35.4 | 0.00 | 0.00 | 0.00 | 36 | 1008.1 |
| 20260504180054 | 18 | 309 | 19.3 | 35.4 | 0.00 | 0.00 | 0.00 | 39 | 1008.1 |
| 20260504175548 | 18 | 259 | 12.9 | 30.6 | 0.00 | 0.00 | 0.00 | 36 | 1008.1 |
| 20260504175048 | 19 | 259 | 11.3 | 30.6 | 0.00 | 0.00 | 0.00 | 35 | 1008.2 |
| 20260504174554 | 18 | 326 | 17.7 | 35.4 | 0.00 | 0.00 | 0.00 | 35 | 1008.2 |
| 20260504174048 | 18 | 222 | 19.3 | 35.4 | 0.00 | 0.00 | 0.00 | 35 | 1008.2 |
| 20260504173548 | 18 | 280 | 17.7 | 27.4 | 0.00 | 0.00 | 0.00 | 38 | 1008.2 |
| 20260504173056 | 18 | 267 | 12.9 | 32.2 | 0.00 | 0.00 | 0.00 | 32 | 1008.1 |
| 20260504172547 | 18 | 221 | 19.3 | 32.2 | 0.00 | 0.00 | 0.00 | 36 | 1008.1 |
| 20260504172048 | 18 | 234 | 19.3 | 32.2 | 0.00 | 0.00 | 0.00 | 36 | 1008.2 |
| 20260504171556 | 18 | 262 | 19.3 | 33.8 | 0.00 | 0.00 | 0.00 | 37 | 1008.2 |
| 20260504171048 | 18 | 245 | 20.9 | 33.8 | 0.00 | 0.00 | 0.00 | 37 | 1008.1 |
| 20260504170550 | 18 | 206 | 17.7 | 33.8 | 0.00 | 0.00 | 0.00 | 36 | 1008.2 |
| 20260504151052 | 16 | 258 | 14.5 | 37.0 | 0.00 | 0.00 | 0.00 | 43 | 1009.5 |
| 20260504150548 | 16 | 297 | 17.7 | 37.0 | 0.00 | 0.00 | 0.00 | 39 | 1009.6 |
| 20260504141048 | 15 | 264 | 12.9 | 25.7 | 0.00 | 0.00 | 0.00 | 44 | 1009.9 |
| 20260504140548 | 15 | 236 | 12.9 | 25.7 | 0.00 | 0.00 | 0.00 | 44 | 1009.9 |
| 20260504130549 | 13 | 249 | 8.0 | 17.7 | 0.00 | 0.00 | 0.00 | 49 | 1010.4 |
| 20260504120108 | 10 | 269 | 9.7 | 22.5 | 0.00 | 0.00 | 0.00 | 56 | 1011.0 |
| 20260504110547 | 8 | 248 | 4.8 | 11.3 | 0.00 | 0.00 | 0.00 | 59 | 1010.8 |
| 20260504100554 | 3 | 0 | 0.0 | 0.0 | 0.00 | 0.00 | 0.00 | 75 | 1010.7 |
| 20260504081605 | 5 | 0 | 0.0 | 0.0 | 0.00 | 0.00 | 0.00 | 73 | 1010.3 |
| 20260504081048 | 5 | 0 | 0.0 | 0.0 | 0.00 | 0.00 | 0.00 | 73 | 1010.2 |
| 20260504080551 | 5 | 0 | 0.0 | 0.0 | 0.00 | 0.00 | 0.00 | 72 | 1010.1 |
| 20260504050551 | 5 | 0 | 0.0 | 3.2 | 0.00 | 0.00 | 0.00 | 57 | 1010.1 |
| 20260504045550 | 5 | 219 | 1.6 | 4.8 | 0.00 | 0.00 | 0.00 | 57 | 1010.3 |
| 20260504045050 | 6 | 219 | 1.6 | 4.8 | 0.00 | 0.00 | 0.00 | 60 | 1010.4 |
| 20260504044555 | 6 | 219 | 1.6 | 4.8 | 0.00 | 0.00 | 0.00 | 56 | 1010.5 |
| 20260504044047 | 6 | 219 | 1.6 | 4.8 | 0.00 | 0.00 | 0.00 | 56 | 1010.3 |
| 20260504043547 | 6 | 219 | 1.6 | 4.8 | 0.00 | 0.00 | 0.00 | 55 | 1010.2 |
| 20260504043058 | 6 | 219 | 1.6 | 4.8 | 0.00 | 0.00 | 0.00 | 55 | 1010.3 |
| 20260504042547 | 6 | 219 | 1.6 | 6.4 | 0.00 | 0.00 | 0.00 | 51 | 1010.3 |
| 20260504042049 | 6 | 221 | 3.2 | 6.4 | 0.00 | 0.00 | 0.00 | 55 | 1010.3 |
| 20260504041551 | 6 | 213 | 3.2 | 4.8 | 0.00 | 0.00 | 0.00 | 55 | 1010.1 |
| 20260504041048 | 6 | 0 | 0.0 | 0.0 | 0.00 | 0.00 | 0.00 | 56 | 1010.2 |
| 20260504040549 | 6 | 0 | 0.0 | 3.2 | 0.00 | 0.00 | 0.00 | 56 | 1010.1 |
| 20260504040132 | 6 | 0 | 0.0 | 4.8 | 0.00 | 0.00 | 0.00 | 55 | 1010.1 |
| 20260504035549 | 6 | 0 | 1.6 | 8.0 | 0.00 | 0.00 | 0.00 | 56 | 1010.0 |
| 20260504035047 | 6 | 226 | 3.2 | 8.0 | 0.00 | 0.00 | 0.00 | 56 | 1010.1 |
| 20260504034601 | 6 | 219 | 3.2 | 6.4 | 0.00 | 0.00 | 0.00 | 56 | 1010.0 |
| 20260504034046 | 5 | 241 | 3.2 | 6.4 | 0.00 | 0.00 | 0.00 | 57 | 1010.1 |
| 20260504033548 | 6 | 241 | 3.2 | 6.4 | 0.00 | 0.00 | 0.00 | 58 | 1009.9 |
| 20260504033051 | 6 | 241 | 3.2 | 6.4 | 0.00 | 0.00 | 0.00 | 60 | 1009.9 |
| 20260504032548 | 6 | 241 | 3.2 | 6.4 | 0.00 | 0.00 | 0.00 | 57 | 1009.9 |
| 20260504032048 | 6 | 241 | 3.2 | 6.4 | 0.00 | 0.00 | 0.00 | 57 | 1009.8 |
| 20260504031600 | 6 | 241 | 3.2 | 6.4 | 0.00 | 0.00 | 0.00 | 55 | 1009.8 |
| 20260504031051 | 6 | 241 | 3.2 | 6.4 | 0.00 | 0.00 | 0.00 | 59 | 1009.8 |
| 20260504030546 | 6 | 240 | 3.2 | 8.0 | 0.00 | 0.00 | 0.00 | 60 | 1009.8 |
| 20260504030051 | 6 | 240 | 3.2 | 8.0 | 0.00 | 0.00 | 0.00 | 61 | 1009.8 |
| 20260504025549 | 6 | 240 | 3.2 | 6.4 | 0.00 | 0.00 | 0.00 | 62 | 1009.8 |
| 20260504025047 | 5 | 243 | 4.8 | 6.4 | 0.00 | 0.00 | 0.00 | 62 | 1009.7 |
| 20260504024550 | 5 | 243 | 3.2 | 8.0 | 0.00 | 0.00 | 0.00 | 62 | 1009.7 |
| 20260504024048 | 5 | 233 | 4.8 | 8.0 | 0.00 | 0.00 | 0.00 | 58 | 1009.7 |
| 20260504023547 | 5 | 220 | 4.8 | 8.0 | 0.00 | 0.00 | 0.00 | 63 | 1009.6 |
| 20260504023054 | 5 | 220 | 3.2 | 6.4 | 0.00 | 0.00 | 0.00 | 65 | 1009.6 |
| 20260504022547 | 5 | 219 | 1.6 | 4.8 | 0.00 | 0.00 | 0.00 | 65 | 1009.6 |
| 20260504022048 | 5 | 0 | 0.0 | 0.0 | 0.00 | 0.00 | 0.00 | 66 | 1009.6 |
| 20260504021557 | 5 | 0 | 0.0 | 0.0 | 0.00 | 0.00 | 0.00 | 66 | 1009.6 |
| 20260504021047 | 5 | 0 | 0.0 | 0.0 | 0.00 | 0.00 | 0.00 | 67 | 1009.5 |
| 20260504020547 | 4 | 0 | 0.0 | 0.0 | 0.00 | 0.00 | 0.00 | 68 | 1009.6 |
| 20260504020109 | 5 | 0 | 0.0 | 0.0 | 0.00 | 0.00 | 0.00 | 67 | 1009.5 |
| 20260504015550 | 5 | 0 | 0.0 | 0.0 | 0.00 | 0.00 | 0.00 | 65 | 1009.4 |
| 20260504015049 | 4 | 0 | 0.0 | 0.0 | 0.00 | 0.00 | 0.00 | 68 | 1009.5 |
| 20260504014556 | 4 | 0 | 0.0 | 0.0 | 0.00 | 0.00 | 0.00 | 65 | 1009.5 |